Flag for India Weather past 2 weeks in Firozpur, Punjab, India

Now
70 °F

Passing clouds.


Feels Like: 70 °F
Forecast: 52 / 80 °F
Wind: 3 mph from East

Location: Lahore Airport

Current Time: Feb 27, 2015 at 1:04:13 PM

Latest Report: Feb 27, 2015 at 12:25 PM


Visibility: 4 mi

Pressure: 30.01 "Hg

Humidity: 35%

Dew point: 41 °F

Location of FirozpurLocation

Historic Weather in Firozpur — Graph

°F

Firozpur temperature yesterday

Maximum temperature yesterday: 72 °F (at 2:25 PM)
Minimum temperature yesterday: 54 °F (at 3:55 AM)
Average temperature yesterday: 63 °F

Past Weeks' High & Low Weather Summary

 TemperatureHumidityPressure
High82 °F (Feb 15, 2:55 PM)100% (Feb 16, 6:00 PM)30.09 "Hg (Feb 16, 6:00 PM)
Low48 °F (Feb 27, 6:55 AM)25% (Feb 12, 2:55 PM)29.68 "Hg (Feb 25, 5:25 AM)
Average65 °F67%29.92 "Hg
* Reported Feb 12 11:55 AM — Feb 27 11:55 AM, Firozpur, Weather by CustomWeather, © 2015

Note: Actual official high and low records may vary slightly from our data, if they occured in-between our weather recording intervals... More about our weather records

Advertising

Firozpur weather history for previous 24 hours

 ConditionsComfort  
Time TempWeatherWind HumidityBarometerVisibility
11:55 AM
Fri, Feb 27
70 °FHaze.3 mph40%30.01 "Hg4 mi
11:25 AM68 °FHaze.3 mph43%30.01 "Hg3 mi
10:55 AM64 °FClear.3 mph52%30.01 "Hg2 mi
10:25 AM63 °FClear.3 mph56%30.01 "Hg2 mi
9:55 AM59 °FClear.3 mph68%29.98 "Hg2 mi
9:25 AM57 °FClear.No wind72%29.98 "Hg2 mi
8:55 AM52 °FFog.No wind82%29.98 "Hg1 mi
8:25 AM48 °FFog.No wind87%29.95 "Hg1 mi
7:55 AM48 °FFog.No wind87%29.95 "Hg1 mi
7:25 AM48 °FFog.No wind87%29.92 "Hg1 mi
6:55 AM48 °FFog.No wind94%29.92 "Hg2 mi
5:25 AM52 °FClear.No wind88%29.89 "Hg2 mi
4:55 AM54 °FClear.No wind82%29.89 "Hg2 mi
4:25 AM55 °FClear.No wind77%29.89 "Hg2 mi
3:55 AM55 °FClear.No wind77%29.89 "Hg2 mi
3:25 AM55 °FClear.No wind77%29.89 "Hg2 mi
2:55 AM55 °FClear.No wind77%29.89 "Hg2 mi
1:55 AM57 °FClear.No wind72%29.89 "Hg2 mi
1:25 AM57 °FClear.No wind72%29.89 "Hg2 mi
12:55 AM59 °FClear.No wind68%29.92 "Hg2 mi
12:25 AM59 °FClear.No wind63%29.92 "Hg2 mi
11:25 PM
Thu, Feb 26
59 °FClear.No wind63%29.92 "Hg2 mi
10:55 PM61 °FClear.No wind59%29.89 "Hg2 mi
10:25 PM61 °FClear.No wind59%29.89 "Hg2 mi
9:55 PM63 °FClear.No wind56%29.89 "Hg2 mi
9:25 PM63 °FClear.No wind56%29.89 "Hg2 mi
8:55 PM64 °FClear.No wind52%29.89 "Hg2 mi
8:25 PM64 °FClear.No wind52%29.89 "Hg2 mi
7:55 PM64 °FHaze.3 mph46%29.86 "Hg3 mi
7:25 PM64 °FHaze.5 mph46%29.86 "Hg3 mi
6:30 PM68 °FPassing clouds.6 mph33%29.86 "Hg4 mi
5:55 PM70 °FScattered clouds.8 mph29%29.83 "Hg4 mi
5:25 PM70 °FScattered clouds.9 mph29%29.83 "Hg4 mi
5:00 PM72 °FScattered clouds.9 mph25%29.83 "Hg4 mi
4:30 PM72 °FScattered clouds.9 mph25%29.83 "Hg4 mi
4:00 PM72 °FPassing clouds.8 mph25%29.83 "Hg4 mi
3:25 PM72 °FScattered clouds.6 mph25%29.83 "Hg4 mi
2:55 PM72 °FScattered clouds.7 mph57%29.83 "Hg4 mi
2:25 PM72 °FScattered clouds.7 mph29%29.83 "Hg4 mi
1:55 PM70 °FScattered clouds.7 mph29%29.83 "Hg4 mi
1:25 PM70 °FScattered clouds.7 mph29%29.86 "Hg4 mi
Weather by CustomWeather, © 2015

See weather overviewHow to use our weather pages